When you browse on this site, cookies collect data to enhance your experience and personalize the content and advertising you see.
Visit our Privacy Policy to learn more. By continuing to use the site, you agree to this use of cookies and data.
  • In Deutschland
  • Länderverzeichnis
  • Für 7 Tage
  • Wassertemperatur
  • Satellitenkarten
  • Wetterkarte
  • Widgets
  • user-avatar
    Anmelden

    Stündliche Wetter Julara

    Heute, 25 April, Donnerstag

    Zeit Temperatur Niederschläge Wind Luftdruck Luftfeuchtigkeit
    00:00 +19°C° 0 mm 5 m/S 722 mmHg 40%
    01:00 +19°C° 0 mm 5 m/S 722 mmHg 41%
    02:00 +17°C° 0 mm 5 m/S 722 mmHg 42%
    03:00 +16°C° 0 mm 5 m/S 722 mmHg 43%
    04:00 +17°C° 0 mm 4 m/S 722 mmHg 44%
    05:00 +15°C° 0 mm 4 m/S 722 mmHg 44%
    06:00 +15°C° 0 mm 4 m/S 722 mmHg 45%
    07:00 +17°C° 0 mm 5 m/S 722 mmHg 40%
    08:00 +20°C° 0 mm 6 m/S 723 mmHg 35%
    09:00 +21°C° 0 mm 6 m/S 723 mmHg 30%
    10:00 +23°C° 0 mm 6 m/S 723 mmHg 27%
    11:00 +24°C° 0 mm 6 m/S 722 mmHg 24%
    12:00 +27°C° 0 mm 7 m/S 722 mmHg 20%
    13:00 +27°C° 0 mm 7 m/S 721 mmHg 19%
    14:00 +28°C° 0 mm 7 m/S 721 mmHg 17%
    15:00 +28°C° 0 mm 8 m/S 721 mmHg 18%
    16:00 +27°C° 0 mm 7 m/S 721 mmHg 19%
    17:00 +24°C° 0 mm 6 m/S 721 mmHg 21%
    18:00 +23°C° 0 mm 5 m/S 721 mmHg 22%
    19:00 +22°C° 0 mm 5 m/S 721 mmHg 25%
    20:00 +21°C° 0 mm 5 m/S 721 mmHg 27%
    21:00 +19°C° 0 mm 5 m/S 721 mmHg 29%
    22:00 +19°C° 0 mm 5 m/S 722 mmHg 32%
    23:00 +17°C° 0 mm 5 m/S 722 mmHg 34%

    Morgen, 26 April, Freitag

    Zeit Temperatur Niederschläge Wind Luftdruck Luftfeuchtigkeit
    00:00 +17°C° 0 mm 6 m/S 722 mmHg 36%
    01:00 +17°C° 0 mm 6 m/S 722 mmHg 38%
    02:00 +16°C° 0 mm 6 m/S 722 mmHg 40%
    03:00 +16°C° 0 mm 6 m/S 722 mmHg 41%
    04:00 +16°C° 0 mm 6 m/S 722 mmHg 43%
    05:00 +16°C° 0 mm 6 m/S 722 mmHg 45%
    06:00 +15°C° 0 mm 6 m/S 722 mmHg 46%
    07:00 +17°C° 0 mm 7 m/S 722 mmHg 44%
    08:00 +18°C° 0 mm 8 m/S 722 mmHg 42%
    09:00 +19°C° 0 mm 9 m/S 723 mmHg 40%
    10:00 +22°C° 0 mm 9 m/S 723 mmHg 36%
    11:00 +24°C° 0 mm 9 m/S 723 mmHg 32%
    12:00 +27°C° 0 mm 9 m/S 723 mmHg 28%
    13:00 +27°C° 0 mm 9 m/S 722 mmHg 27%
    14:00 +27°C° 0 mm 9 m/S 722 mmHg 26%
    15:00 +28°C° 0 mm 9 m/S 721 mmHg 25%
    16:00 +27°C° 0 mm 8 m/S 721 mmHg 27%
    17:00 +24°C° 0 mm 7 m/S 721 mmHg 29%
    18:00 +23°C° 0 mm 7 m/S 722 mmHg 32%
    19:00 +22°C° 0 mm 7 m/S 722 mmHg 34%
    20:00 +21°C° 0 mm 7 m/S 722 mmHg 37%
    21:00 +18°C° 0 mm 7 m/S 723 mmHg 40%
    22:00 +18°C° 0 mm 7 m/S 723 mmHg 42%
    23:00 +17°C° 0 mm 7 m/S 723 mmHg 44%

    übermorgen, 27 April, Samstag

    Zeit Temperatur Niederschläge Wind Luftdruck Luftfeuchtigkeit
    00:00 +16°C° 0 mm 7 m/S 723 mmHg 46%
    01:00 +16°C° 0 mm 7 m/S 723 mmHg 47%
    02:00 +15°C° 0 mm 7 m/S 722 mmHg 47%
    03:00 +15°C° 0 mm 7 m/S 722 mmHg 48%
    04:00 +14°C° 0 mm 7 m/S 722 mmHg 49%
    05:00 +14°C° 0 mm 6 m/S 723 mmHg 50%
    06:00 +13°C° 0 mm 6 m/S 723 mmHg 51%
    07:00 +15°C° 0 mm 7 m/S 723 mmHg 47%
    08:00 +17°C° 0 mm 8 m/S 724 mmHg 43%
    09:00 +18°C° 0 mm 9 m/S 724 mmHg 39%
    10:00 +21°C° 0 mm 9 m/S 724 mmHg 36%
    11:00 +23°C° 0 mm 9 m/S 724 mmHg 32%
    12:00 +27°C° 0 mm 8 m/S 724 mmHg 28%
    13:00 +27°C° 0 mm 8 m/S 723 mmHg 26%
    14:00 +28°C° 0 mm 8 m/S 722 mmHg 24%
    15:00 +29°C° 0 mm 8 m/S 722 mmHg 22%
    16:00 +27°C° 0 mm 7 m/S 722 mmHg 24%
    17:00 +26°C° 0 mm 7 m/S 722 mmHg 26%
    18:00 +24°C° 0 mm 6 m/S 722 mmHg 28%
    19:00 +22°C° 0 mm 6 m/S 723 mmHg 31%
    20:00 +21°C° 0 mm 7 m/S 723 mmHg 33%
    21:00 +20°C° 0 mm 7 m/S 724 mmHg 35%
    22:00 +18°C° 0 mm 7 m/S 724 mmHg 37%
    23:00 +18°C° 0 mm 7 m/S 724 mmHg 38%

    28 April, Sonntag

    Zeit Temperatur Niederschläge Wind Luftdruck Luftfeuchtigkeit
    00:00 +17°C° 0 mm 7 m/S 724 mmHg 39%
    01:00 +16°C° 0 mm 6 m/S 723 mmHg 41%
    02:00 +16°C° 0 mm 6 m/S 723 mmHg 43%
    03:00 +15°C° 0 mm 6 m/S 723 mmHg 45%
    04:00 +14°C° 0 mm 6 m/S 723 mmHg 46%
    05:00 +14°C° 0 mm 5 m/S 723 mmHg 48%
    06:00 +13°C° 0 mm 5 m/S 723 mmHg 50%
    07:00 +15°C° 0 mm 6 m/S 724 mmHg 44%
    08:00 +17°C° 0 mm 7 m/S 724 mmHg 39%
    09:00 +18°C° 0 mm 8 m/S 725 mmHg 33%
    10:00 +21°C° 0 mm 8 m/S 724 mmHg 29%
    11:00 +23°C° 0 mm 8 m/S 724 mmHg 25%
    12:00 +26°C° 0 mm 7 m/S 724 mmHg 20%
    13:00 +27°C° 0 mm 7 m/S 723 mmHg 19%
    14:00 +28°C° 0 mm 7 m/S 722 mmHg 17%
    15:00 +29°C° 0 mm 7 m/S 722 mmHg 16%
    16:00 +27°C° 0 mm 6 m/S 722 mmHg 16%
    17:00 +24°C° 0 mm 6 m/S 722 mmHg 17%
    18:00 +23°C° 0 mm 5 m/S 722 mmHg 17%
    19:00 +22°C° 0 mm 5 m/S 722 mmHg 18%
    20:00 +20°C° 0 mm 5 m/S 723 mmHg 19%
    21:00 +19°C° 0 mm 6 m/S 723 mmHg 21%
    22:00 +17°C° 0 mm 5 m/S 723 mmHg 22%
    23:00 +16°C° 0 mm 5 m/S 723 mmHg 24%

    29 April, Montag

    Zeit Temperatur Niederschläge Wind Luftdruck Luftfeuchtigkeit
    00:00 +15°C° 0 mm 5 m/S 723 mmHg 25%
    01:00 +15°C° 0 mm 5 m/S 722 mmHg 27%
    02:00 +14°C° 0 mm 5 m/S 722 mmHg 29%
    03:00 +13°C° 0 mm 4 m/S 722 mmHg 31%
    04:00 +13°C° 0 mm 4 m/S 722 mmHg 33%
    05:00 +12°C° 0 mm 4 m/S 722 mmHg 35%
    06:00 +11°C° 0 mm 4 m/S 722 mmHg 36%
    07:00 +13°C° 0 mm 4 m/S 723 mmHg 32%
    08:00 +16°C° 0 mm 5 m/S 723 mmHg 29%
    09:00 +19°C° 0 mm 6 m/S 724 mmHg 25%
    10:00 +21°C° 0 mm 5 m/S 723 mmHg 22%
    11:00 +23°C° 0 mm 5 m/S 723 mmHg 18%
    12:00 +26°C° 0 mm 4 m/S 722 mmHg 15%
    13:00 +27°C° 0 mm 4 m/S 721 mmHg 14%
    14:00 +27°C° 0 mm 3 m/S 721 mmHg 14%
    15:00 +28°C° 0 mm 3 m/S 720 mmHg 13%
    16:00 +27°C° 0 mm 3 m/S 720 mmHg 14%
    17:00 +25°C° 0 mm 3 m/S 720 mmHg 15%
    18:00 +22°C° 0 mm 3 m/S 720 mmHg 16%
    19:00 +21°C° 0 mm 3 m/S 720 mmHg 17%
    20:00 +20°C° 0 mm 3 m/S 721 mmHg 18%
    21:00 +19°C° 0 mm 4 m/S 721 mmHg 19%
    22:00 +19°C° 0 mm 3 m/S 721 mmHg 21%
    23:00 +18°C° 0 mm 3 m/S 720 mmHg 23%

    30 April, Dienstag

    Zeit Temperatur Niederschläge Wind Luftdruck Luftfeuchtigkeit
    00:00 +17°C° 0 mm 3 m/S 720 mmHg 24%
    01:00 +16°C° 0 mm 3 m/S 720 mmHg 25%
    02:00 +16°C° 0 mm 2 m/S 720 mmHg 27%
    03:00 +15°C° 0 mm 2 m/S 719 mmHg 28%
    04:00 +15°C° 0 mm 2 m/S 719 mmHg 28%
    05:00 +14°C° 0 mm 2 m/S 720 mmHg 29%
    06:00 +14°C° 0 mm 2 m/S 720 mmHg 30%
    07:00 +16°C° 0 mm 2 m/S 720 mmHg 27%
    08:00 +19°C° 0 mm 2 m/S 721 mmHg 24%
    09:00 +22°C° 0 mm 1 m/S 721 mmHg 20%
    10:00 +24°C° 0 mm 1 m/S 721 mmHg 19%
    11:00 +26°C° 0 mm 1 m/S 721 mmHg 17%
    12:00 +28°C° 0 mm 1 m/S 720 mmHg 15%
    13:00 +29°C° 0 mm 3 m/S 720 mmHg 14%
    14:00 +30°C° 0 mm 4 m/S 720 mmHg 13%
    15:00 +32°C° 0 mm 5 m/S 719 mmHg 12%
    16:00 +29°C° 0 mm 5 m/S 719 mmHg 13%
    17:00 +27°C° 0 mm 5 m/S 720 mmHg 14%
    18:00 +26°C° 0 mm 5 m/S 720 mmHg 15%
    19:00 +24°C° 0 mm 6 m/S 720 mmHg 17%
    20:00 +23°C° 0 mm 6 m/S 721 mmHg 18%
    21:00 +22°C° 0 mm 7 m/S 721 mmHg 19%
    22:00 +21°C° 0 mm 7 m/S 721 mmHg 20%
    23:00 +20°C° 0 mm 7 m/S 722 mmHg 21%
    Mehr zeigen